Location: Knowlton
(51.2333°N, 1.2667°E)
Time: 04:56:30
(UTC+00:00)

Terra - Pass Details

Date: 18 April 2021
Orbit: 701 x 703 km, 98.2° (Epoch: 06 May)

Event Time Altitude Azimuth Distance (km) Brightness Sun altitude
Exits shadow 19:50:06 - 91° (E) 2,414 4.0 -8.5°
Reaches altitude 10° 19:51:11 10° 81° (E) 2,176 3.9 -8.6°
Maximum altitude 19:53:25 13° 52° (NE) 1,955 3.9 -8.9°
Drops below altitude 10° 19:55:39 10° 24° (NNE) 2,182 4.5 -9.2°
Sets 19:59:02 0° 359° (N) 3,105 5.6 -9.7°
